Grissom ARB Airport
KGUS : now visible

Airfield :











YOU CAN JOIN US ON...

 
LOGIN :

Register | Disclaimer

   EN    FR    IT 

 









Legend :    VFR   Marginal VFR   IFR   Intensive IFR   Very Intensive IFR
Visi :
Ceiling :
>= 8 km
>= 3000ft
5 to 8 km
1000 to 3000 ft
1500m to 5 km
500 to 1000 ft
800 to 1500m
200 to 500 ft
< 800m
< 200 ft
Symbols :   Thunderstorms  Fog  Heavy snow  Heavy precipitations  Wind > 20 kt






- Airport Elevation : 812 ft


KGUS - Grissom ARB

CURRENT METAR :
  • 220956Z AUTO 23005KT 10SM FEW090 M01/M01 A3007 RMK AO2 SLP193 T10111011 $

TAF AMD TAF KGUS
Valid from the 22 at 01:00 until the 23 at 03:00 UTC


220111Z 2201/2303 VRB06KT 9999 BKN050 QNH3005INS
BECMG 2202/2203 VRB06KT 9999 SKC QNH3009INS
BECMG 2214/2215 28012G20KT 9999 FEW055 QNH3015INS TX08/2217Z TNM02/2211Z LAST NO AMDS AFT 2203 NEXT 2213
KZAU FIR / North America



MET'MAP, your aeronautical weather chart ! - Copyright ORBIFLY December 2007 - Disclaimer

ORBIFLY MET'MAP TEAM :

Programming & Development : Alexandra Zaïnal
Concept & original design : Baudouin d'Aumeries
Assistance for programming : Marc-Olivier Méhu
Technical & hardware support : Manuel Goepfert

Contact : metmap@orbifly.com




SOURCES & CREDITS :

   NOAA       Earth
Advisory